Powrót do katalogu

MOLNIYA 3-24

AktywnyŁącznośćHEO
NORAD 15738·PAYLOAD·🇷🇺 Russia

Wystrzelony May 29, 1985 z Plesetsk Cosmodrome

Loading…

Następne Przeloty (najbliższe 24 godziny)

TLE

ŚwieżeSource: Space-Track

Epoka: Sep 12, 2026, 17:22 UTC

1 15738U 85040A   26255.72402974  .00000162  00000-0  20948-3 0  9991
2 15738  62.3586 134.4236 6958423 258.9347  22.0753  2.55675396343450

Śledź MOLNIYA 3-24 w czasie rzeczywistym z AllMySat

Download on the App Store